Regional Weather Roundup
Issued by NWS

Home | Current Version | Previous Version | Text Only | Print | Product List | Glossary On
Versions: 1 2 3 4 5 6 7 8 9 10 11 12 13 14 15 16 17 18 19 20 21 22 23 24 25 26 27 28 29 30 31 32 33 34 35 36 37 38 39 40 41 42 43 44 45 46 47 48 49 50
000
ASUS43 KLOT 011506
RWRIL

ILLINOIS REGIONAL WEATHER ROUNDUP
NATIONAL WEATHER SERVICE CHICAGO/ROMEOVILLE IL
900 AM CST SUN MAR 01 2015

NOTE: "FAIR" INDICATES FEW OR NO CLOUDS BELOW 12,000 FEET WITH NO
SIGNIFICANT WEATHER AND/OR OBSTRUCTIONS TO VISIBILITY.

* THESE STATIONS ARE NOT UNDER NWS QUALITY CONTROL. THEY ALSO MAY NOT
  REPORT WEATHER SUCH AS PRECIPITATION OR FOG.

ILZ001-002-007-009-015-016-024-011600-
NORTHWEST ILLINOIS

CITY           SKY/WX    TMP DP  RH WIND       PRES   REMARKS
MOLINE         PTSUNNY   15  13  91 CALM      30.38S FOG
STERLING*      CLOUDY   N/A N/A N/A SW3       30.38R
SAVANNA*       PTSUNNY   17  14  90 CALM      30.37F FOG
$$

ILZ003-004-008-010-011-017-018-011600-
NORTH CENTRAL ILLINOIS

CITY           SKY/WX    TMP DP  RH WIND       PRES   REMARKS
ROCKFORD       CLOUDY    17  13  84 CALM      30.36F FOG
FREEPORT*      PTSUNNY   13  10  90 CALM      30.36F FOG
ROCHELLE*      CLOUDY    13  10  91 CALM      30.37F FOG
DE KALB*       CLOUDY    15  12  90 CALM      30.36F FOG
PERU*          LGT SNOW  18  15  90 CALM      30.39R
$$

ILZ005-006-012>014-019>023-011600-
NORTHEAST ILLINOIS

CITY           SKY/WX    TMP DP  RH WIND       PRES   REMARKS
CHICAGO-OHARE  CLOUDY    19  17  92 CALM      30.36F FOG
CHICAGO-MIDWAY CLOUDY    21  17  84 CALM      30.38S
AURORA         CLOUDY    16  14  92 CALM      30.37F FOG
LANSING*       LGT SNOW  20  18  91 CALM      30.39S
JOLIET*        LGT SNOW  20  17  88 CALM      30.38F
WAUKEGAN       CLOUDY    16  15  96 SW5       30.36F FOG     WCI   9
DUPAGE AIRPORT CLOUDY    18  17  96 CALM      30.35F FOG
KANKAKEE*      SNOW      20  18  91 E3        30.38F VSB 1/2
WHEELING       CLOUDY    18  15  88 CALM      30.38F FOG
MORRIS*        LGT SNOW  18  17  95 CALM      30.38F VSB 1
ROMEOVILLE*    CLOUDY    19  18  93 CALM      30.37F FOG
NORTHERLY ISL    N/A     21  16  81 CALM        N/A
$$

LMZ740>746-011600-
SOUTHERN LAKE MICHIGAN

STATION/POSITION SKY/WX   TEMP    WIND        PRES    VSBY  WAVE
                          AIR SEA DIR/SP/G                  HT/PER
                          (F)     (DEG/KT/KT) (MB)    (MI)  (FT/S)
WAUKEGAN HARBOR            16     240/ 11/ 15   N/A
HARRISON CRIB              21      CALM  /  2   N/A
BURNHAM HARBOR             21     250/  2/  3   N/A
CALUMET HARBOR             20     190/  3/  4 1027.6F
MICHIGAN CITY              18     130/  5/  5   N/A
$$

ILZ025>027-034>036-040-047-049-050-058-095>099-011600-
WEST-CENTRAL ILLINOIS

CITY           SKY/WX    TMP DP  RH WIND       PRES   REMARKS
QUINCY         SNOW      22  19  89 CALM      30.39R VSB 1/2
GALESBURG*     LGT SNOW  19  18  93 NW3       30.38R VSB 1
MACOMB*        MIX PCPN  21  19  93 CALM      30.42R
JACKSONVILLE*  LGT SNOW  25  22  86 CALM      30.39R
PITTSFIELD*    LGT SNOW  24  21  90 CALM      30.40R
$$

ILZ028>032-037-038-041>044-048-051>054-059>061-011600-
CENTRAL ILLINOIS

CITY           SKY/WX    TMP DP  RH WIND       PRES   REMARKS
PONTIAC        SNOW      22  20  93 CALM      30.39F VSB 1/4
BLOOMINGTON    SNOW      22  20  92 CALM      30.38R VSB 1/2
DECATUR        SNOW      24  21  88 N3        30.38R VSB 1/2
PEORIA         HVY SNOW  23  20  88 CALM      30.39S VSB 1/4
LACON*         LGT SNOW  19  17  90 CALM      30.39S VSB 1
LINCOLN*       LGT SNOW  24  22  90 CALM      30.39F VSB 3/4
SPRINGFIELD    LGT SNOW  25  21  85 CALM      30.40R FOG
TAYLORVILLE    CLOUDY    25  23  93 CALM      30.37F FOG
$$

ILZ033-039-045-046-055>057-062-063-011600-
EAST-CENTRAL ILLINOIS

CITY           SKY/WX    TMP DP  RH WIND       PRES   REMARKS
CHAMPAIGN      LGT SNOW  23  21  92 CALM      30.38R VSB 3/4
DANVILLE*      LGT SNOW  23  20  91 CALM      30.35R VSB 3/4
RANTOUL*       LGT SNOW  25  22  89 CALM      30.38R VSB 1
MATTOON        LGT SNOW  27  24  89 S3        30.36S FOG
PARIS*         LGT SNOW  26  25  95 CALM      30.38R
$$

ILZ079-100>102-011600-
SOUTHWEST ILLINOIS

CITY           SKY/WX    TMP DP  RH WIND       PRES   REMARKS
ALTON          FOG       28  27  93 VRB5      30.39R VSB 1   WCI  23
BELLEVILLE     PTSUNNY   28  27  99 CALM      30.37S FOG
CAHOKIA*       CLOUDY    28  26  92 W3        30.39S FOG
SPARTA*          N/A     28  28  96 CALM      30.39R FOG
$$

ILZ064>066-069>071-074>076-080>082-084>086-088>090-092>094-011600-
SOUTH-CENTRAL ILLINOIS

CITY           SKY/WX    TMP DP  RH WIND       PRES   REMARKS
CARBONDALE     CLOUDY    31  29  92 CALM      30.38R FOG
CAIRO*         CLOUDY    36  32  87 CALM      30.37R
EFFINGHAM*     LGT SNOW  28  25  89 CALM      30.39S
MARION         LGT RAIN  32  30  93 N3        30.38F
MT. VERNON     CLOUDY    28  25  86 CALM      30.37S
CENTRALIA*     CLOUDY    29  27  93 CALM      30.37S FOG
SALEM*         MIX PCPN  30  28  92 CALM      30.38S
METROPOLIS*    CLOUDY    34  32  91 CALM      30.35F
$$

ILZ067-068-072-073-078-083-087-091-011600-
SOUTHEAST ILLINOIS

CITY           SKY/WX    TMP DP  RH WIND       PRES   REMARKS
LAWRENCEVILLE  CLOUDY    31  29  92 NE6       30.38F FOG     WCI  25
FLORA*           N/A     28  28  99 CALM      30.38S FOG
FAIRFIELD*     MIX PCPN  30  29  96 CALM      30.37S
HARRISBURG*    CLOUDY    32  31  96 N3        30.38F FOG
ROBINSON*      LGT SNOW  29  28  97 CALM      30.39S
CARMI*         CLOUDY    33  33  96 CALM      30.38R FOG
$$

ABBREVIATIONS USED IN REMARKS
   TC - TEMPERATURE IN CELSIUS
  WCI - WIND CHILL INDEX
   HX - HEAT INDEX
  VSB - VISIBILITY
$$



USA.gov is the U.S. government's official web portal to all federal, state and local government web resources and services.